Home > Weather > Orlando > Past weeks

Flag for USA Past Weather in Orlando, Florida, USA — Yesterday and Last 2 Weeks

Now
95 °F

Passing clouds.


Feels Like: 101 °F
Forecast: 78 / 96 °F
Wind: 6 mph from North

Location: Orlando Executive Airport

Current Time: Jul 28, 2016 at 4:20:32 PM

Latest Report: Jul 28, 2016 at 3:53 PM


Visibility: 10 mi

Pressure: 30.02 "Hg

Humidity: 43%

Dew Point: 69 °F

Location of OrlandoLocation

Past Weather in Orlando — Graph

°F

Orlando Temperature Yesterday

Maximum temperature yesterday: 94 °F (at 2:53 PM)
Minimum temperature yesterday: 79 °F (at 4:53 AM)
Average temperature yesterday: 86 °F

High & Low Weather Summary for the Past Weeks

 TemperatureHumidityPressure
High95 °F (Jul 28, 2:53 PM)100% (Jul 19, 10:53 PM)30.24 "Hg (Jul 19, 10:53 PM)
Low74 °F (Jul 14, 5:53 AM)40% (Jul 24, 2:53 PM)29.98 "Hg (Jul 23, 5:53 PM)
Average83 °F73%30.10 "Hg
* Reported Jul 13 2:53 PM — Jul 28 2:53 PM, Orlando, Weather by CustomWeather, © 2016

Note: Actual official high and low records may vary slightly from our data, if they occured in-between our weather recording intervals... More about our weather records

Advertising

Orlando Weather History for the Previous 24 Hours

Scroll right to see more
 ConditionsComfort  
Time TempWeatherWind HumidityBarometerVisibility
2:53 PM
Thu, Jul 28
95 °FScattered clouds.6 mph46%30.03 "Hg10 mi
1:53 PM94 °FSunny.7 mph48%30.05 "Hg10 mi
12:53 PM94 °FSunny.6 mph46%30.07 "Hg10 mi
11:53 AM91 °FSunny.6 mph54%30.08 "Hg10 mi
10:53 AM89 °FSunny.8 mph57%30.09 "Hg10 mi
9:53 AM87 °FSunny.9 mph61%30.09 "Hg10 mi
8:53 AM84 °FSunny.7 mph74%30.09 "Hg10 mi
7:53 AM81 °FSunny.6 mph85%30.08 "Hg10 mi
6:53 AM79 °FClear.No wind90%30.07 "Hg10 mi
5:53 AM80 °FClear.5 mph87%30.07 "Hg10 mi
4:53 AM80 °FClear.3 mph87%30.06 "Hg10 mi
3:53 AM80 °FClear.5 mph85%30.06 "Hg10 mi
2:53 AM81 °FClear.5 mph85%30.07 "Hg10 mi
1:53 AM82 °FClear.7 mph79%30.08 "Hg10 mi
12:53 AM82 °FClear.6 mph77%30.08 "Hg10 mi
11:53 PM
Wed, Jul 27
82 °FClear.7 mph77%30.08 "Hg10 mi
10:53 PM83 °FClear.9 mph72%30.07 "Hg10 mi
9:53 PM84 °FClear.7 mph72%30.06 "Hg10 mi
8:53 PM86 °FSunny.12 mph65%30.04 "Hg10 mi
7:53 PM90 °FSunny.13 mph57%30.02 "Hg10 mi
6:53 PM93 °FSunny.7 mph44%30.01 "Hg10 mi
5:53 PM94 °FPassing clouds.7 mph44%30.01 "Hg10 mi
4:53 PM93 °FScattered clouds.8 mph46%30.02 "Hg10 mi
Weather by CustomWeather, © 2016

See weather overviewHow to use our weather pages